Flag for U.S.A. Weather past 2 weeks in Sunnyvale, California, U.S.A.

Now
68 °F

Sunny.


Feels Like: 68 °F
Forecast: 54 / 76 °F
Wind: 13 mph from North

Location: Moffett Field

Current Time: May 30, 2015 at 4:24:28 PM

Latest Report: May 30, 2015 at 3:56 PM


Visibility: 10 mi

Pressure: 29.92 "Hg

Humidity: 65%

Dew point: 56 °F

Location of SunnyvaleLocation

Historic Weather in Sunnyvale — Graph

°F

Sunnyvale temperature yesterday

Maximum temperature yesterday: 65 °F (at 2:56 PM)
Minimum temperature yesterday: 55 °F (at 2:56 AM)
Average temperature yesterday: 59 °F

Past Weeks' High & Low Weather Summary

 TemperatureHumidityPressure
High68 °F (May 26, 2:56 PM)90% (May 28, 10:56 PM)30.14 "Hg (May 28, 10:56 PM)
Low52 °F (May 24, 5:56 AM)50% (May 15, 3:56 PM)29.93 "Hg (May 15, 3:56 PM)
Average59 °F71%30.02 "Hg
* Reported May 15 2:56 PM — May 30 2:56 PM, Sunnyvale, Weather by CustomWeather, © 2015

Note: Actual official high and low records may vary slightly from our data, if they occured in-between our weather recording intervals... More about our weather records

Advertising

Sunnyvale weather history for previous 24 hours

 ConditionsComfort  
Time TempWeatherWind HumidityBarometerVisibility
2:56 PM
Sat, May 30
67 °FSunny.12 mph66%29.94 "Hg10 mi
1:56 PM65 °FSunny.9 mph68%29.96 "Hg10 mi
12:56 PM63 °FSunny.9 mph73%29.97 "Hg10 mi
11:56 AM62 °FPartly sunny.10 mph73%29.98 "Hg10 mi
10:56 AM61 °FSunny.8 mph72%29.99 "Hg10 mi
9:56 AM61 °FSunny.3 mph72%29.98 "Hg10 mi
9:03 AM57 °FPartly sunny.5 mph82%29.98 "Hg10 mi
8:56 AM57 °FLow clouds.5 mph83%29.98 "Hg10 mi
7:56 AM55 °FLow clouds.No wind87%29.98 "Hg10 mi
6:56 AM55 °FLow clouds.3 mph87%29.98 "Hg10 mi
5:56 AM55 °FLow clouds.5 mph87%29.98 "Hg10 mi
4:56 AM56 °FLow clouds.9 mph87%29.96 "Hg10 mi
3:56 AM56 °FOvercast.3 mph84%29.96 "Hg10 mi
2:56 AM55 °FOvercast.No wind87%29.94 "Hg10 mi
1:56 AM56 °FOvercast.No wind84%29.95 "Hg10 mi
12:56 AM55 °FOvercast.3 mph87%29.96 "Hg10 mi
11:56 PM
Fri, May 29
56 °FOvercast.3 mph84%29.98 "Hg10 mi
11:03 PM55 °FOvercast.6 mph88%29.97 "Hg10 mi
10:56 PM56 °FPassing clouds.6 mph87%29.98 "Hg10 mi
10:03 PM57 °FOvercast.9 mph82%29.98 "Hg10 mi
9:56 PM56 °FPassing clouds.8 mph87%29.98 "Hg10 mi
8:56 PM57 °FPassing clouds.9 mph87%29.98 "Hg10 mi
7:56 PM58 °FScattered clouds.13 mph84%29.96 "Hg10 mi
6:56 PM60 °FSunny.14 mph80%29.95 "Hg10 mi
5:56 PM62 °FSunny.15 mph75%29.94 "Hg10 mi
4:56 PM63 °FSunny.13 mph73%29.95 "Hg10 mi
Weather by CustomWeather, © 2015

See weather overviewHow to use our weather pages